User: anonymous   Login
Location: Newark
(49.8969°N, 3.3422°E)
Time: 08:44:33
(UTC+00:00)
Language:

Courier 1B - Orbit

View from above orbital plane
View from above orbital plane
View from above satellite
View from above satellite

Ground track
Ground track

The orbit data is extracted from the following two-line orbital elements,

1    58U 60013A   20017.56622152 +.00000095 +00000-0 +11268-4 0  9998
2    58 028.3273 145.1892 0165029 251.8168 106.4346 13.46320578918139
Epoch (UTC): 17 January 2020 13:35:21
Eccentricity: 0.0165029
inclination: 28.3273°
perigee height: 962 km
apogee height: 1209 km
right ascension of ascending node: 145.1892°
argument of perigee: 251.8168°
revolutions per day: 13.46320578
mean anomaly at epoch: 106.4346°
orbit number at epoch: 91813

The dashed part of the orbit path shows where the satellite is in the earth's shadow,  

DLR